sat.trackr.live / text

‹ back to catalog

STARLINK-32332

NORAD 62490 · 2025-003D

PAYLOAD ACTIVE UNKNOWN

§ Identity

Operator
Country
US
Launch date
2025-01-06
Launch site
AFETR
Launch vehicle
Mass (kg)
RCS (m²)

Purposes: comms

External: N2YO · Heavens-Above · Gunter

§ Orbital elements

Epoch: 2026-05-25T05:08:28.320288Z

Period
94.27 min
Inclination
42.9982°
Eccentricity
0.0001505
Mean motion
15.27587270 rev/d
Perigee alt
482.0 km
Apogee alt
484.1 km
Semi-major
6,861.2 km
B*
5.2585e-4
RAAN
216.9186°
Arg perigee
280.4019°
Mean anomaly
79.6663°
Rev number
7,835

§ Raw data

STARLINK-323321 62490U 25003D   26145.21421667  .00014240  00000+0  52585-3 0  99962 62490  42.9982 216.9186 0001505 280.4019  79.6663 15.27587270 78359

JSON: /api/v1/satellites/62490 · /tle

For live sub-satellite position, see the globe view (requires WebGL).

§ Visibility from observer

Set your observer location to see the next 7 days of passes ≥ 10°. The values pass through the URL so the page stays shareable.

No JS? Fill the form by hand. The geolocation button needs JavaScript.